Weather observations for the past three days for
San Carlos Airport
Metric (Imperial)
Date Time (pdt) Wind (kph) Vis. (km) Weather Sky Cond. Temperature (ºC) Relative Humidity Wind Chill (°C) Heat Index (°C) Pressure Precipitation (cm)
Air Dwpt 6 hour altimeter (cm) sea level (mb) 1 hr 3 hr 6 hr
Max. Min.
04 19:47 NW 17 16.09 Overcast SCT040 OVC150 15 9 68% 76.15 0.0
04 18:47 W 15 16.09 Overcast SCT040 OVC150 15 9 68% 76.15 0.0
04 17:47 W 17 16.09 Overcast OVC050 16 9 63% 76.17 0.0
04 16:47 W 20 16.09 Overcast OVC050 17 8 56% 76.17 0.0
04 15:47 W 24 16.09 Overcast BKN048 OVC055 18 8 52% 76.17 0.0
04 13:47 W 17 16.09 Overcast BKN050 OVC055 17 8 56% 76.2 0.0
04 12:47 W 20 16.09 Mostly Cloudy BKN050 17 8 56% 76.2 0.0
04 11:47 W 17 16.09 Overcast OVC050 16 9 63% 76.23 0.0
04 09:59 W 13 16.09 Mostly Cloudy SCT031 BKN035 BKN055 16 9 63% 76.17 0.0
04 08:59 Calm 16.09 Mostly Cloudy BKN025 BKN032 BKN055 16 11 72% 76.17 0.0
04 07:59 Calm 16.09 NULL NULL 14 9 72% 76.2 0.0
04 06:59 Calm 14.48 NULL NULL 12 9 82% 76.17 0.0
04 06:55 Calm 14.48 Mostly Cloudy BKN026 12 10 88% 76.15 0.0
04 06:35 Calm 14.48 Overcast OVC026 13 10 82% 76.15 0.0
04 06:15 Calm 14.48 Partly Cloudy FEW018 SCT027 13 10 82% 76.12 0.0
04 05:55 Calm 14.48 Partly Cloudy SCT055 12 10 88% 76.12 0.0
04 05:35 Calm 14.48 Overcast OVC055 13 10 82% 76.12 0.0
04 05:15 Calm 16.09 Overcast OVC055 13 10 82% 76.12 0.0
04 04:55 Calm 16.09 Overcast SCT050 OVC055 12 10 88% 76.12 0.0
04 04:35 Calm 16.09 Overcast BKN049 OVC060 13 10 82% 76.12 0.0
04 04:15 Calm 16.09 Overcast OVC047 13 10 82% 76.12 0.0
04 03:55 Calm 14.48 Overcast SCT035 BKN044 OVC050 13 10 82% 76.12 0.0
04 03:35 Calm 16.09 Overcast FEW027 BKN035 OVC055 13 9 77% 76.12 0.0
04 03:15 Calm 16.09 Overcast SCT026 BKN033 OVC055 13 10 82% 76.12 0.0
04 02:55 Calm 16.09 Mostly Cloudy FEW023 SCT029 BKN039 14 10 77% 76.1 0.0
04 02:35 Calm 16.09 Overcast SCT029 BKN038 OVC043 13 9 77% 76.1 0.0
04 02:15 Calm 16.09 Mostly Cloudy FEW030 BKN037 13 9 77% 76.12 0.0
04 01:55 Calm 16.09 Partly Cloudy FEW032 FEW040 SCT049 13 9 77% 76.12 0.0
04 01:35 Calm 16.09 Mostly Cloudy FEW040 BKN050 13 9 77% 76.12 0.0
04 01:15 Calm 16.09 Mostly Cloudy BKN050 14 9 72% 76.15 0.0
04 00:55 Calm 16.09 Mostly Cloudy BKN055 14 9 72% 76.15 0.0
04 00:35 Calm 14.48 Mostly Cloudy BKN055 14 9 72% 76.15 0.0
04 00:15 Calm 16.09 Mostly Cloudy BKN055 13 9 77% 76.15 0.0
03 23:55 Calm 16.09 Mostly Cloudy BKN055 14 9 72% 76.15 0.0
03 23:35 Calm 16.09 Mostly Cloudy BKN055 14 9 72% 76.15 0.0
03 23:15 Calm 16.09 Mostly Cloudy BKN050 14 9 72% 76.12 0.0
03 22:55 Calm 16.09 Overcast OVC050 14 9 72% 76.12 0.0
03 22:35 Calm 16.09 Overcast OVC050 14 9 72% 76.12 0.0
03 22:15 Calm 16.09 Overcast OVC050 14 9 72% 76.1 0.0
03 21:55 Calm 16.09 Mostly Cloudy BKN050 14 9 72% 76.1 0.0
03 21:35 Calm 16.09 Fair CLR 14 9 72% 76.1 0.0
03 21:15 Calm 16.09 Fair CLR 14 9 72% 76.07 0.0
03 20:47 S 9 16.09 Fair CLR 13 8 72% 76.07 0.0
03 18:50 SW 13 16.09 Mostly Cloudy BKN050 16 8 59% 76 0.0
03 16:47 SW 17 G 31 16.09 Mostly Cloudy BKN045 18 8 52% 75.97 0.0
03 16:00 SW 17 16.09 Overcast OVC046 17 8 56% 76 0.0
03 14:47 SW 19 16.09 Overcast OVC043 18 8 52% 76 0.0
03 13:50 SW 19 G 31 16.09 Mostly Cloudy BKN045 18 8 52% 76 0.0
03 12:47 SW 15 16.09 Overcast BKN035 OVC045 18 6 46% 76.02 0.0
03 11:47 SW 13 16.09 Overcast BKN035 OVC045 17 8 56% 76.05 0.0
03 10:50 W 13 16.09 Mostly Cloudy BKN021 16 9 63% 76.02 0.0
03 09:50 Calm 16.09 Mostly Cloudy BKN021 14 11 82% 76.05 0.0
03 08:50 SW 6 16.09 Overcast OVC021 13 10 82% 76.05 0.0
03 07:50 Vrbl 6 16.09 Overcast BKN029 OVC035 13 9 77% 76 0.0
03 06:55 Calm 14.48 Overcast OVC030 13 10 82% 75.92 0.0
03 06:50 SW 6 16.09 Overcast OVC030 13 9 77% 75.95 0.0
03 06:35 Calm 16.09 Overcast OVC031 13 10 82% 75.92 0.0
03 06:15 Calm 14.48 Overcast OVC031 13 10 82% 75.9 0.0
03 05:55 Calm 16.09 Overcast OVC027 13 10 82% 75.87 0.0
03 05:35 Calm 16.09 Overcast OVC029 13 11 88% 75.87 0.0
03 05:15 Calm 16.09 Overcast OVC027 13 11 88% 75.87 0.0
03 04:55 Calm 14.48 Overcast OVC024 13 10 82% 75.9 0.0
03 04:35 Calm 14.48 Overcast OVC024 13 10 82% 75.9 0.0
03 04:15 Calm 14.48 Overcast OVC025 13 10 82% 75.9 0.0
03 03:55 Calm 14.48 Overcast OVC023 13 10 82% 75.9 0.0
03 03:35 Calm 14.48 Overcast OVC022 13 10 82% 75.9 0.0
03 03:15 Calm 14.48 Overcast OVC021 13 10 82% 75.9 0.0
03 02:55 Calm 14.48 Overcast OVC022 13 10 82% 75.9 0.0
03 02:35 Calm 16.09 Overcast OVC023 14 10 77% 75.9 0.0
03 02:15 Calm 14.48 Overcast OVC022 14 10 77% 75.9 0.0
03 01:55 Calm 14.48 Overcast OVC022 14 10 77% 75.92 0.0
03 01:35 Calm 14.48 Overcast OVC020 14 10 77% 75.92 0.0
03 01:15 Calm 14.48 Overcast OVC023 14 10 77% 75.95 0.0
03 00:55 Calm 16.09 Overcast OVC024 14 10 77% 75.95 0.0
03 00:35 Calm 16.09 Overcast OVC025 14 9 72% 75.95 0.0
03 00:15 Calm 16.09 Overcast OVC025 14 10 77% 75.95 0.0
02 23:55 Calm 14.48 Overcast BKN022 OVC027 14 10 77% 75.95 0.0
02 23:35 Calm 14.48 Overcast SCT020 OVC026 14 10 77% 75.95 0.0
02 23:15 Calm 14.48 Overcast OVC026 14 10 77% 75.95 0.0
02 22:55 Calm 14.48 Overcast OVC026 14 9 72% 75.97 0.0
02 22:35 W 13 14.48 Overcast OVC026 14 10 77% 75.97 0.0
02 22:15 W 11 14.48 Overcast OVC027 14 10 77% 76 0.0
02 21:55 W 11 14.48 Overcast FEW020 OVC026 14 9 72% 75.97 0.0
02 21:35 Calm 14.48 Overcast SCT020 OVC027 14 10 77% 75.97 0.0
02 21:15 Calm 14.48 Overcast OVC027 14 9 72% 75.97 0.0
02 20:47 W 17 11.27 Overcast OVC027 13 9 77% 75.95 0.0
02 19:47 W 20 11.27 Overcast OVC027 13 9 77% 75.92 0.0
02 18:47 W 28 G 39 11.27 Overcast SCT029 OVC200 14 8 67% 75.9 0.0
02 17:47 W 28 G 43 11.27 Overcast SCT029 OVC200 16 9 63% 75.92 0.0
02 16:47 W 26 G 39 11.27 Overcast BKN029 OVC200 17 9 60% 75.92 0.0
02 15:47 W 28 G 37 16.09 Mostly Cloudy BKN027 17 9 60% 75.97 0.0
02 14:55 W 24 G 39 12.87 Mostly Cloudy BKN030 17 10 64% 76.02 0.0
02 13:55 W 22 12.87 Mostly Cloudy BKN025 18 10 60% 76.05 0.0
02 12:47 W 24 11.27 Overcast OVC025 16 10 68% 76.12 0.0
02 11:47 SW 20 16.09 Overcast OVC023 16 11 72% 76.12 0.0
02 10:50 W 20 16.09 Mostly Cloudy BKN023 15 10 72% 76.12 0.0
02 09:50 W 17 16.09 Mostly Cloudy SCT013 BKN025 14 11 82% 76.12 0.0
02 08:53 W 19 16.09 Overcast OVC020 14 11 82% 76.1 0.0
02 06:59 Calm 16.09 Partly Cloudy SCT020 13 10 82% 76.05 0.0
02 06:55 Calm 12.87 Mostly Cloudy BKN019 13 11 88% 76.02 0.0
02 06:35 Calm 12.87 Overcast OVC018 13 11 88% 76.02 0.0
02 06:15 Calm 12.87 Overcast OVC016 13 11 88% 76 0.0
02 05:55 W 9 12.87 Overcast OVC015 13 11 88% 76 0.0
02 05:35 Calm 14.48 Overcast OVC014 13 11 88% 76 0.0
02 05:15 Calm 14.48 Overcast OVC014 13 11 88% 75.97 0.0
02 04:55 Calm 14.48 Overcast OVC014 13 11 88% 75.97 0.0
02 04:35 Calm 14.48 Overcast OVC015 13 11 88% 76 0.0
02 04:15 Calm 12.87 Overcast OVC016 13 11 88% 76 0.0
02 03:55 Calm 12.87 Overcast OVC015 13 11 88% 76 0.0
02 03:35 Calm 14.48 Overcast OVC015 13 11 88% 76 0.0
02 03:15 NW 15 12.87 Overcast OVC014 13 11 88% 76 0.0
02 02:55 NW 13 12.87 Overcast OVC015 13 11 88% 76.02 0.0
02 02:35 Calm 12.87 Overcast OVC015 13 11 88% 76.05 0.0
02 02:15 W 19 12.87 Overcast OVC014 13 11 88% 76.05 0.0
02 01:55 Calm 12.87 Overcast OVC015 13 11 88% 76.05 0.0
02 01:35 W 11 12.87 Overcast OVC015 13 11 88% 76.07 0.0
02 01:15 W 7 12.87 Overcast OVC014 13 11 88% 76.07 0.0
02 00:55 W 9 12.87 Overcast OVC014 13 11 88% 76.1 0.0
02 00:35 W 9 14.48 Overcast OVC014 13 11 88% 76.07 0.0
02 00:15 Calm 12.87 Overcast OVC014 13 11 88% 76.07 0.0
01 23:55 W 11 12.87 Overcast OVC015 13 11 88% 76.07 0.0
01 23:35 W 13 12.87 Overcast OVC017 13 11 88% 76.07 0.0
01 23:15 W 11 12.87 Mostly Cloudy BKN017 13 11 88% 76.07 0.0
01 22:55 W 7 12.87 Partly Cloudy SCT017 13 11 88% 76.07 0.0
01 22:35 W 11 12.87 A Few Clouds FEW022 13 11 88% 76.1 0.0
01 22:15 W 15 14.48 A Few Clouds FEW023 13 11 88% 76.07 0.0
01 21:55 W 15 12.87 Fair CLR 13 11 88% 76.07 0.0
01 21:35 W 6 12.87 NULL NULL 13 11 88% 76.07 0.0
01 21:15 Calm 12.87 Fair CLR 14 11 82% 76.05 0.0
01 20:50 NW 17 16.09 Fair CLR 13 10 82% 76.02 0.0
Date Time (pdt) Wind (kph) Vis. (km) Weather Sky Cond. Air Dwpt Max. Min. Relative Humidity Wind Chill (°C) Heat Index (°C) altimeter (cm) sea level (mb) 1 hr 3 hr 6 hr
6 hour
Temperature (ºC) Pressure Precipitation (cm)